IT9FBN-3 Weather Reports


time (UTC)temp
F
wind
direction
speed
knots
gust
knots
rain 1hr
in
rain 24hr
in
rain mn
in
humidity
%
barometer
mb
20260505025502 55 353 2.6 7.0 0.00 0.00 0.00 85 1018.2
20260505025002 55 357 3.5 7.0 0.00 0.00 0.00 85 1018.3
20260505024502 55 358 4.3 7.0 0.00 0.00 0.00 84 1018.3
20260505024002 55 2 3.5 7.0 0.00 0.00 0.00 84 1018.2
20260505023502 56 4 3.5 7.0 0.00 0.00 0.00 84 1018.2
20260505023002 56 13 3.5 7.0 0.00 0.00 0.00 84 1018.3
20260505022502 56 26 2.6 6.1 0.00 0.00 0.00 84 1018.4
20260505022002 56 32 2.6 4.3 0.00 0.00 0.00 85 1018.4
20260505021502 56 26 2.6 5.2 0.00 0.00 0.00 85 1018.5
20260505021002 56 14 2.6 5.2 0.00 0.00 0.00 84 1018.4
20260505020502 56 4 3.5 5.2 0.00 0.00 0.00 84 1018.3
20260505020002 56 5 3.5 7.0 0.00 0.00 0.00 84 1018.3
20260505015502 56 5 2.6 7.0 0.00 0.00 0.00 84 1018.3
20260505015002 56 7 2.6 6.1 0.00 0.00 0.00 84 1018.3
20260505014502 56 7 2.6 7.8 0.00 0.00 0.00 85 1018.4
20260505014002 56 357 2.6 8.7 0.00 0.00 0.00 85 1018.4
20260505013502 56 351 4.3 8.7 0.00 0.00 0.00 85 1018.4
20260505013002 56 349 4.3 12.2 0.00 0.00 0.00 85 1018.5
20260505012502 56 351 4.3 12.2 0.00 0.00 0.00 84 1018.4
20260505012002 56 353 4.3 9.6 0.00 0.00 0.00 84 1018.4
20260505011502 56 3 4.3 8.7 0.00 0.00 0.00 84 1018.6
20260505011002 56 5 4.3 8.7 0.00 0.00 0.00 84 1018.7
20260505010502 56 5 4.3 8.7 0.00 0.00 0.00 84 1018.6
20260505010002 56 3 3.5 7.0 0.00 0.00 0.00 84 1018.5
20260505005502 56 356 4.3 8.7 0.00 0.00 0.00 85 1018.6
20260505005002 56 359 4.3 8.7 0.00 0.00 0.00 85 1018.6
20260505004502 56 1 3.5 7.8 0.00 0.00 0.00 85 1018.6
20260505004003 56 4 3.5 7.8 0.00 0.00 0.00 85 1018.7
20260505003502 56 10 3.5 7.0 0.00 0.00 0.00 85 1018.5
20260505003002 56 18 3.5 6.1 0.00 0.00 0.00 85 1018.7
20260505002502 56 23 2.6 5.2 0.00 0.00 0.00 85 1018.8
20260505002002 56 16 2.6 5.2 0.00 0.00 0.00 85 1018.8
20260505001502 56 16 2.6 5.2 0.00 0.00 0.00 85 1018.7
20260505001002 56 18 2.6 5.2 0.00 0.00 0.00 85 1018.9
20260505000502 56 12 2.6 5.2 0.00 0.00 0.00 85 1019.0
20260505000002 56 7 2.6 4.3 0.00 0.00 0.00 85 1019.0
20260504235502 56 356 2.6 5.2 0.00 0.00 0.00 85 1019.0
20260504235002 56 354 2.6 5.2 0.00 0.00 0.00 85 1019.1
20260504234502 56 4 2.6 7.0 0.00 0.00 0.00 85 1019.2
20260504234002 56 7 3.5 7.0 0.00 0.00 0.00 85 1019.3
20260504233502 56 14 2.6 5.2 0.00 0.00 0.00 85 1019.4
20260504233002 57 32 1.7 3.5 0.00 0.00 0.00 85 1019.5
20260504232502 57 30 1.7 3.5 0.00 0.00 0.00 85 1019.6
20260504232002 57 23 1.7 3.5 0.00 0.00 0.00 85 1019.8
20260504231502 56 14 1.7 5.2 0.00 0.00 0.00 85 1019.8
20260504231002 56 360 1.7 5.2 0.00 0.00 0.00 85 1019.7
20260504230502 56 360 1.7 3.5 0.00 0.00 0.00 85 1019.7
20260504230002 56 6 1.7 4.3 0.00 0.00 0.00 85 1019.8
20260504225502 56 6 1.7 5.2 0.00 0.00 0.00 85 1019.9
20260504225002 56 9 2.6 6.1 0.00 0.00 0.00 85 1020.0
20260504224502 56 5 3.5 6.1 0.00 0.00 0.00 84 1019.8
20260504224002 56 5 3.5 7.8 0.00 0.00 0.00 84 1019.9
20260504223502 56 11 3.5 7.8 0.00 0.00 0.00 84 1020.0
20260504223002 56 22 3.5 6.1 0.00 0.00 0.00 84 1020.1
20260504222502 56 35 2.6 5.2 0.00 0.00 0.00 84 1020.1
20260504222002 56 48 1.7 3.5 0.00 0.00 0.00 85 1020.1
20260504221502 56 38 1.7 4.3 0.00 0.00 0.00 85 1020.1
20260504221002 56 9 1.7 4.3 0.00 0.00 0.00 85 1020.0
20260504220502 56 7 1.7 6.1 0.00 0.00 0.00 85 1019.9
20260504220003 56 6 1.7 6.1 0.00 0.00 0.00 85 1019.8
20260504215502 56 358 2.6 5.2 0.00 0.00 0.00 85 1019.7
20260504215002 56 358 2.6 5.2 0.00 0.00 0.00 85 1019.8
20260504214502 56 357 2.6 4.3 0.00 0.00 0.00 85 1019.9
20260504214002 56 355 2.6 5.2 0.00 0.00 0.00 85 1020.0
20260504213502 56 360 2.6 5.2 0.00 0.00 0.00 85 1020.0
20260504213002 57 359 2.6 6.1 0.00 0.00 0.00 85 1020.0
20260504212502 57 353 3.5 7.8 0.00 0.00 0.00 85 1020.1
20260504212002 57 352 3.5 7.8 0.00 0.00 0.00 85 1020.2
20260504211502 57 352 3.5 7.8 0.00 0.00 0.00 85 1020.0
20260504211002 57 351 4.3 7.8 0.00 0.00 0.00 85 1020.1
20260504210502 57 350 4.3 7.8 0.00 0.00 0.00 85 1020.1
20260504210002 57 349 4.3 7.8 0.00 0.00 0.00 85 1020.2
20260504205502 57 353 3.5 7.0 0.00 0.00 0.00 85 1020.3
20260504205002 57 4 2.6 7.0 0.00 0.00 0.00 85 1020.4
20260504204502 58 354 2.6 8.7 0.00 0.00 0.00 85 1020.4
20260504204002 58 350 3.5 8.7 0.00 0.00 0.00 85 1020.5
20260504203502 58 358 3.5 8.7 0.00 0.00 0.00 85 1020.6
20260504203002 58 2 3.5 8.7 0.00 0.00 0.00 85 1020.6
20260504202502 58 358 4.3 7.8 0.00 0.00 0.00 85 1020.6
20260504202002 58 358 4.3 7.8 0.00 0.00 0.00 85 1020.6
20260504201502 58 358 3.5 7.8 0.00 0.00 0.00 85 1020.6
20260504201002 57 356 3.5 7.0 0.00 0.00 0.00 85 1020.5
20260504200502 57 5 2.6 6.1 0.00 0.00 0.00 85 1020.6
20260504200002 57 6 2.6 7.0 0.00 0.00 0.00 85 1020.5
20260504195502 57 359 3.5 8.7 0.00 0.00 0.00 85 1020.6
20260504195002 58 359 4.3 8.7 0.00 0.00 0.00 85 1020.4
20260504194502 58 356 3.5 7.8 0.00 0.00 0.00 85 1020.4
20260504194002 58 354 4.3 7.8 0.00 0.00 0.00 85 1020.3
20260504193502 58 357 5.2 9.6 0.00 0.00 0.00 84 1020.2
20260504193002 58 360 4.3 9.6 0.00 0.00 0.00 84 1020.2
20260504192502 58 358 4.3 11.3 0.00 0.00 0.00 85 1020.2
20260504192002 58 356 5.2 11.3 0.00 0.00 0.00 85 1020.2
20260504191502 58 359 5.2 9.6 0.00 0.00 0.00 85 1020.1
20260504191002 58 1 5.2 10.4 0.00 0.00 0.00 84 1020.0
20260504190502 58 5 5.2 11.3 0.00 0.00 0.00 84 1020.1
20260504190002 58 14 3.5 11.3 0.00 0.00 0.00 84 1020.2
20260504185502 58 37 2.6 6.1 0.00 0.00 0.00 84 1020.3
20260504185002 58 42 1.7 5.2 0.00 0.00 0.00 83 1020.1
20260504184502 59 9 2.6 6.1 0.00 0.00 0.00 83 1020.2
20260504184002 59 2 3.5 6.1 0.00 0.00 0.00 83 1019.9
20260504183502 59 4 3.5 7.0 0.00 0.00 0.00 83 1019.8
20260504183002 59 358 4.3 8.7 0.00 0.00 0.00 82 1019.7
20260504182502 59 357 3.5 8.7 0.00 0.00 0.00 82 1019.6
20260504182002 59 351 4.3 9.6 0.00 0.00 0.00 82 1019.7
20260504181502 59 350 4.3 9.6 0.00 0.00 0.00 82 1019.7
20260504181002 59 355 3.5 7.8 0.00 0.00 0.00 82 1019.8
20260504180502 59 2 4.3 8.7 0.00 0.00 0.00 81 1019.8
20260504180002 59 3 5.2 10.4 0.00 0.00 0.00 82 1019.9
20260504175503 59 1 5.2 10.4 0.00 0.00 0.00 81 1019.9
20260504175002 59 7 4.3 9.6 0.00 0.00 0.00 81 1020.0
20260504174503 59 8 4.3 9.6 0.00 0.00 0.00 81 1019.8
20260504174002 60 9 4.3 9.6 0.00 0.00 0.00 81 1019.9
20260504173502 60 12 4.3 9.6 0.00 0.00 0.00 80 1019.7
20260504173002 60 11 5.2 9.6 0.00 0.00 0.00 80 1019.9
20260504172502 60 10 4.3 9.6 0.00 0.00 0.00 80 1019.8
20260504172002 60 15 4.3 9.6 0.00 0.00 0.00 80 1019.7
20260504171502 60 11 4.3 9.6 0.00 0.00 0.00 79 1019.7
20260504171003 60 10 5.2 11.3 0.00 0.00 0.00 79 1019.6
20260504170502 60 6 6.1 11.3 0.00 0.00 0.00 79 1019.5
20260504151002 64 9 9.6 20.0 0.00 0.00 0.00 70 1019.6
20260504150503 64 7 9.6 20.0 0.00 0.00 0.00 71 1019.6
20260504141003 65 12 11.3 20.0 0.00 0.00 0.00 68 1020.0
20260504140503 65 12 9.6 20.0 0.00 0.00 0.00 67 1020.0
20260504130503 65 15 10.4 19.1 0.00 0.00 0.00 69 1020.5
20260504110503 66 359 7.8 15.6 0.00 0.00 0.00 61 1020.8
20260504100503 65 360 8.7 15.6 0.00 0.00 0.00 59 1021.8
20260504082003 61 352 8.7 19.1 0.00 0.00 0.00 69 1021.8
20260504081503 61 353 9.6 19.1 0.00 0.00 0.00 69 1021.7
20260504081001 61 356 10.4 19.1 0.00 0.00 0.00 69 1021.5
20260504080501 61 354 9.6 16.5 0.00 0.00 0.00 71 1021.5
20260504050502 54 343 3.5 7.0 0.00 0.00 0.00 85 1021.0
20260504050002 54 346 2.6 6.1 0.00 0.00 0.00 85 1020.9
20260504045501 54 354 1.7 5.2 0.00 0.00 0.00 85 1020.9
20260504045001 54 354 2.6 5.2 0.00 0.00 0.00 85 1021.0
20260504044502 54 356 0.0 3.5 0.00 0.00 0.00 85 1020.8
20260504044002 52 32 0.0 7.0 0.00 0.00 0.00 79 1020.9
20260504043503 52 32 0.0 7.0 0.00 0.00 0.00 79 1020.7
20260504043002 52 32 0.0 7.0 0.00 0.00 0.00 79 1020.7
20260504042502 52 32 0.0 7.0 0.00 0.00 0.00 79 1020.7
20260504042002 52 32 0.0 7.0 0.00 0.00 0.00 79 1020.7
20260504041501 52 32 0.0 7.0 0.00 0.00 0.00 79 1020.7
20260504041001 52 32 0.0 7.0 0.00 0.00 0.00 79 1020.6
20260504040501 52 32 0.0 7.0 0.00 0.00 0.00 79 1020.5
20260504040001 52 32 0.0 7.0 0.00 0.00 0.00 79 1020.5
20260504035501 52 357 0.0 5.2 0.00 0.00 0.00 79 1020.6
20260504035001 52 348 3.5 7.0 0.00 0.00 0.00 79 1020.6
20260504034501 53 347 3.5 7.8 0.00 0.00 0.00 79 1020.6
20260504034001 53 350 3.5 7.8 0.00 0.00 0.00 80 1020.4
20260504033501 53 350 3.5 6.1 0.00 0.00 0.00 80 1020.5
20260504033001 53 348 3.5 6.1 0.00 0.00 0.00 80 1020.5
20260504032502 53 348 3.5 7.0 0.00 0.00 0.00 81 1020.5
20260504032001 53 347 3.5 7.8 0.00 0.00 0.00 80 1020.5
20260504031501 53 345 3.5 7.8 0.00 0.00 0.00 80 1020.6
20260504031001 53 346 2.6 6.1 0.00 0.00 0.00 81 1020.6
20260504030501 53 360 1.7 5.2 0.00 0.00 0.00 82 1020.6
20260504030001 53 359 1.7 5.2 0.00 0.00 0.00 82 1020.8